Location: LDNL
(36.4545°S, 141.6685°E)
Time: 04:39:01
(UTC+11:00)

Vanguard 2 - Pass Details

Date: 14 August 2022
Orbit: 552 x 2934 km, 32.9° (Epoch: 06 October)

Event Time Altitude Azimuth Distance (km) Brightness Sun altitude
Rises 23:57:25 0° 265° (W) 4,738 - -66.3°
Reaches altitude 10° 00:02:45 10° 285° (WNW) 3,194 - -66.7°
Maximum altitude 00:06:29 14° 315° (NW) 2,498 - -67.0°
Drops below altitude 10° 00:09:32 10° 346° (NNW) 2,497 - -67.2°
Sets 00:12:51 0° 12° (NNE) 3,124 - -67.4°
